R/V Atlantis Calliope CSV data file  (Time stamps are GMT)
Date, Time_GMT, Dec_Lat, Dec_Lon, Depth12, Depth35, GPS_COG, GPS_SOG, Gyro, Air_Temp, IMET_BPR, IMET_SWR, HRH, PhinsHd, SBE45C, SBE45S, SBE45T, Salinity, SSTMP, SSV, SSCND, SST_FSI, SST_SBE48, Wnd_Dir, Wnd_Spd, HdChkSum=1B
2009/03/19, 00:00:03, 11.273567, -106.526383, , , 339.0, 11.80, 339.6, 27.423, 1007.55, 189.2, 78.451, 339.1, , , , 33.6248, 28.2971, 1540.5186, 54.5581, 24.7469, 28.2971, 42.4, 6.7913, 1B
2009/03/19, 00:01:01, 11.276517, -106.527550, , , 338.0, 11.70, 340.5, 27.423, 1007.54, 106.5, 78.183, 339.5, , , , 33.6253, 28.2970, 1540.5176, 54.5581, 24.7549, 28.2970, 44.0, 6.8866, 1B
2009/03/19, 00:02:01, 11.279683, -106.528767, , , 338.0, 11.70, 339.9, 27.423, 1007.41, 116.9, 78.183, 338.8, , , , 33.6363, 28.2939, 1540.5239, 54.5715, 24.7344, 28.2939, 44.8, 6.7593, 1B
2009/03/19, 00:03:02, 11.282750, -106.529950, , , 340.0, 11.60, 339.9, 27.423, 1007.51, 177.1, 78.803, 339.2, , , , 33.6072, 28.2880, 1540.4801, 54.5234, 24.7253, 28.2880, 42.0, 6.6553, 1B
2009/03/19, 00:04:01, 11.285717, -106.531067, , , 340.0, 11.90, 340.5, 27.416, 1007.66, 218.9, 78.681, 339.8, , , , 33.6116, 28.2813, 1540.4726, 54.5241, 24.7165, 28.2813, 38.8, 6.5153, 1B
2009/03/19, 00:05:02, 11.288817, -106.532267, , , 340.0, 12.00, 340.0, 27.416, 1007.62, 164.4, 78.397, 339.4, , , , 33.6272, 28.2783, 1540.4798, 54.5423, 24.7098, 28.2783, 39.8, 6.4852, 1B
2009/03/19, 00:06:02, 11.292050, -106.533500, , , 338.0, 12.10, 339.5, 27.423, 1007.66, 166.7, 78.321, 338.4, , , , 33.6169, 28.2754, 1540.4626, 54.5245, 24.7197, 28.2754, 44.7, 6.3380, 1B
2009/03/19, 00:07:01, 11.295133, -106.534733, , , 337.0, 12.00, 339.3, 27.423, 1007.58, 95.7, 78.321, 339.0, , , , 33.6172, 28.2731, 1540.4589, 54.5230, 24.7058, 28.2731, 37.1, 6.7454, 1B
2009/03/19, 00:08:02, 11.298217, -106.535967, , , 342.0, 12.10, 340.3, 27.416, 1007.62, 90.8, 78.497, 339.3, , , , 33.6232, 28.2705, 1540.4584, 54.5285, 24.7043, 28.2705, 39.0, 6.5085, 1B
2009/03/19, 00:09:01, 11.301317, -106.537150, , , 341.0, 11.80, 340.3, 27.416, 1007.59, 129.1, 78.497, 339.6, , , , 33.6306, 28.2684, 1540.4629, 54.5376, 24.7152, 28.2684, 39.7, 6.7003, 1B
2009/03/19, 00:10:01, 11.304433, -106.538333, , , 340.0, 11.90, 340.3, 27.439, 1007.62, 155.3, 78.995, 340.3, , , , 33.6037, 28.2631, 1540.4234, 54.4936, 24.6824, 28.2631, 39.7, 6.5207, 1B
2009/03/19, 00:11:01, 11.307433, -106.539483, , , 338.0, 11.90, 339.6, 27.408, 1007.50, 72.4, 78.589, 338.7, , , , 33.6081, 28.2584, 1540.4173, 54.4950, 24.6751, 28.2584, 31.1, 6.6612, 1B
2009/03/19, 00:12:02, 11.310533, -106.540700, , , 338.0, 11.60, 339.8, 27.377, 1007.53, 74.4, 78.719, 339.2, , , , 33.6192, 28.2549, 1540.4199, 54.5068, 24.6808, 28.2549, 28.6, 7.3966, 1B
2009/03/19, 00:13:02, 11.313750, -106.541917, , , 339.0, 11.90, 340.6, 27.354, 1007.48, 79.9, 78.129, 339.9, , , , 33.6149, 28.2523, 1540.4097, 54.4979, 24.6670, 28.2523, 32.1, 7.3116, 1B
2009/03/19, 00:14:02, 11.316750, -106.543050, , , 338.0, 11.90, 339.5, 27.377, 1007.45, 84.0, 79.225, 338.9, , , , 33.6144, 28.2485, 1540.4008, 54.4933, 24.6581, 28.2485, 32.9, 6.9243, 1B
2009/03/19, 00:15:02, 11.319850, -106.544267, , , 338.0, 12.10, 339.2, 27.315, 1007.46, 142.7, 78.091, 338.9, , , , 33.6285, 28.2466, 1540.4115, 54.5116, 24.6617, 28.2466, 33.1, 7.4873, 1B
2009/03/19, 00:16:02, 11.322950, -106.545450, , , 341.0, 11.60, 340.1, 27.300, 1007.66, 153.9, 77.049, 339.3, , , , 33.6150, 28.2449, 1540.3935, 54.4905, 24.6591, 28.2449, 32.3, 7.7821, 1B
2009/03/19, 00:17:02, 11.326067, -106.546633, , , 342.0, 12.00, 340.5, 27.292, 1007.63, 90.5, 76.574, 340.1, , , , 33.6135, 28.2422, 1540.3860, 54.4855, 24.6476, 28.2422, 35.1, 6.9409, 1B
2009/03/19, 00:18:02, 11.329183, -106.547817, , , 337.0, 12.20, 339.6, 27.277, 1007.46, 95.2, 75.976, 338.5, , , , 33.6159, 28.2372, 1540.3775, 54.4838, 24.6514, 28.2372, 34.4, 7.1341, 1B
2009/03/19, 00:19:02, 11.332267, -106.549017, , , 340.0, 11.50, 340.3, 27.262, 1007.48, 70.7, 76.137, 339.6, , , , 33.6131, 28.2333, 1540.3660, 54.4759, 24.6376, 28.2333, 32.3, 6.9348, 1B
2009/03/19, 00:20:01, 11.335367, -106.550217, , , 340.0, 11.60, 340.1, 27.331, 1007.46, 61.2, 77.792, 339.0, , , , 33.6137, 28.2302, 1540.3585, 54.4729, 24.6270, 28.2302, 28.0, 6.9563, 1B
2009/03/19, 00:21:02, 11.338583, -106.551467, , , 339.0, 12.10, 339.4, 27.331, 1007.60, 56.7, 79.232, 339.1, , , , 33.6170, 28.2242, 1540.3501, 54.4722, 24.6238, 28.2242, 31.5, 7.0080, 1B
2009/03/19, 00:22:02, 11.341667, -106.552650, , , 337.0, 12.00, 339.7, 27.331, 1007.57, 57.1, 79.202, 339.2, , , , 33.6199, 28.2219, 1540.3481, 54.4739, 24.6174, 28.2219, 30.9, 7.0961, 1B
2009/03/19, 00:23:01, 11.344667, -106.553800, , , 340.0, 11.90, 339.9, 27.331, 1007.79, 61.4, 79.232, 339.3, , , , 33.6229, 28.2195, 1540.3479, 54.4768, 24.6193, 28.2195, 31.5, 6.7738, 1B
2009/03/19, 00:24:02, 11.347867, -106.555033, , , 340.0, 12.10, 340.5, 27.300, 1007.46, 68.8, 79.003, 339.9, , , , 33.6183, 28.2171, 1540.3358, 54.4668, 24.6182, 28.2171, 30.6, 6.5496, 1B
2009/03/19, 00:25:02, 11.350867, -106.556167, , , 342.0, 11.90, 340.9, 27.308, 1007.76, 78.0, 79.585, 339.8, , , , 33.6152, 28.2164, 1540.3310, 54.4616, 24.6090, 28.2164, 31.2, 6.8767, 1B
2009/03/19, 00:26:02, 11.353983, -106.557317, , , 340.0, 11.90, 339.8, 27.308, 1007.65, 132.5, 80.435, 339.5, , , , 33.6190, 28.2126, 1540.3266, 54.4631, 24.6044, 28.2126, 30.1, 7.0363, 1B
2009/03/19, 00:27:02, 11.357217, -106.558517, , , 340.0, 11.90, 340.2, 27.300, 1007.55, 156.4, 80.282, 339.5, , , , 33.6136, 28.2094, 1540.3139, 54.4521, 24.5856, 28.2094, 33.2, 6.6563, 1B
2009/03/19, 00:28:01, 11.360350, -106.559683, , , 341.0, 12.20, 339.8, 27.269, 1007.81, 159.4, 79.799, 339.2, , , , 33.6174, 28.2057, 1540.3120, 54.4548, 24.5826, 28.2057, 37.1, 7.1279, 1B
2009/03/19, 00:29:01, 11.363467, -106.560850, , , 339.0, 11.70, 340.0, 27.285, 1007.68, 154.0, 79.455, 339.4, , , , 33.6274, 28.2045, 1540.3174, 54.4669, 24.5910, 28.2045, 37.5, 7.5542, 1B
2009/03/19, 00:30:02, 11.366583, -106.562000, , , 340.0, 11.90, 340.0, 27.254, 1007.68, 148.9, 78.259, 338.6, , , , 33.6307, 28.2039, 1540.3198, 54.4711, 24.5889, 28.2039, 35.6, 7.1870, 1B
2009/03/19, 00:31:02, 11.369617, -106.563133, , , 341.0, 12.20, 339.5, 27.285, 1007.75, 144.9, 78.918, 339.0, , , , 33.6245, 28.2036, 1540.3126, 54.4618, 24.5781, 28.2036, 36.6, 6.8341, 1B
2009/03/19, 00:32:02, 11.372833, -106.564333, , , 339.0, 11.70, 340.0, 27.246, 1007.65, 154.8, 78.903, 338.8, , , , 33.6239, 28.2018, 1540.3080, 54.4592, 24.5743, 28.2018, 34.5, 7.5308, 1B
2009/03/19, 00:33:01, 11.375983, -106.565483, , , 339.0, 11.70, 340.3, 27.238, 1007.71, 157.6, 78.267, 339.2, , , , 33.6325, 28.1999, 1540.3140, 54.4701, 24.5767, 28.1999, 41.3, 7.2132, 1B
2009/03/19, 00:34:02, 11.379117, -106.566617, , , 340.0, 12.00, 339.5, 27.238, 1007.84, 152.0, 77.432, 338.7, , , , 33.6202, 28.2000, 1540.3002, 54.4520, 24.5752, 28.2000, 40.5, 7.3607, 1B
2009/03/19, 00:35:02, 11.382133, -106.567733, , , 342.0, 12.20, 340.5, 27.254, 1007.81, 133.3, 78.114, 339.4, , , , 33.6311, 28.1986, 1540.3085, 54.4662, 24.5710, 28.1986, 39.3, 7.1216, 1B
2009/03/19, 00:36:02, 11.385267, -106.568850, , , 340.0, 11.70, 339.2, 27.285, 1007.71, 114.1, 78.826, 338.7, , , , 33.6238, 28.1977, 1540.2989, 54.4548, 24.5690, 28.1977, 40.9, 6.3244, 1B
2009/03/19, 00:37:02, 11.388517, -106.570050, , , 337.0, 11.80, 339.1, 27.246, 1007.62, 119.1, 78.558, 338.2, , , , 33.6229, 28.1962, 1540.2946, 54.4520, 24.5603, 28.1962, 34.2, 6.4334, 1B
2009/03/19, 00:38:01, 11.391550, -106.571183, , , 339.0, 12.00, 339.5, 27.246, 1007.42, 111.6, 78.022, 339.1, , , , 33.6228, 28.1934, 1540.2881, 54.4489, 24.5554, 28.1934, 33.6, 5.9707, 1B
2009/03/19, 00:39:01, 11.394783, -106.572383, , , 339.0, 12.10, 339.3, 27.292, 1007.48, 108.9, 78.581, 338.7, , , , 33.6294, 28.1903, 1540.2922, 54.4570, 24.5587, 28.1903, 33.4, 6.2237, 1B
2009/03/19, 00:40:01, 11.397933, -106.573567, , , 343.0, 12.00, 340.2, 27.285, 1007.67, 99.4, 78.604, 339.1, , , , 33.6418, 28.1913, 1540.3020, 54.4734, 24.5775, 28.1913, 35.3, 6.4886, 1B
2009/03/19, 00:41:01, 11.401083, -106.574717, , , 341.0, 12.10, 340.6, 27.308, 1007.76, 88.4, 78.528, 339.5, , , , 33.6476, 28.1935, 1540.3134, 54.4841, 24.5720, 28.1935, 38.7, 6.2143, 1B
2009/03/19, 00:42:01, 11.404233, -106.575850, , , 341.0, 12.10, 339.2, 27.315, 1007.71, 82.2, 78.673, 339.6, , , , 33.6506, 28.1954, 1540.3223, 54.4911, 24.5699, 28.1954, 37.9, 6.2700, 1B
2009/03/19, 00:43:01, 11.407383, -106.577017, , , 338.0, 12.10, 339.8, 27.339, 1007.92, 76.2, 78.972, 339.1, , , , 33.6504, 28.1971, 1540.3251, 54.4923, 24.5690, 28.1971, 39.4, 6.8926, 1B
2009/03/19, 00:44:01, 11.410367, -106.578217, , , 338.0, 11.90, 337.9, 27.308, 1007.80, 48.6, 78.198, 337.4, , , , 33.6426, 28.1976, 1540.3189, 54.4819, 24.5567, 28.1976, 36.2, 6.2579, 1B
2009/03/19, 00:45:01, 11.413600, -106.579533, , , 337.0, 12.30, 338.3, 27.346, 1007.93, 39.5, 79.485, 337.4, , , , 33.6448, 28.1977, 1540.3221, 54.4856, 24.5517, 28.1977, 45.1, 6.3258, 1B
2009/03/19, 00:46:02, 11.416617, -106.580750, , , 339.0, 11.70, 338.1, 27.292, 1007.71, 36.1, 78.382, 337.1, , , , 33.6600, 28.1989, 1540.3396, 54.5082, 24.5697, 28.1989, 40.0, 6.4585, 1B
2009/03/19, 00:47:02, 11.419867, -106.582050, , , 337.0, 11.80, 338.4, 27.339, 1007.76, 32.3, 78.060, 337.2, , , , 33.6713, 28.2020, 1540.3584, 54.5276, 24.5681, 28.2020, 41.7, 6.7244, 1B
2009/03/19, 00:48:02, 11.422983, -106.583333, , , 337.0, 11.70, 337.4, 27.369, 1007.96, 28.3, 78.727, 337.2, , , , 33.6733, 28.2043, 1540.3655, 54.5329, 24.5626, 28.2043, 36.6, 6.8854, 1B
2009/03/19, 00:49:02, 11.426100, -106.584633, , , 338.0, 11.90, 337.9, 27.362, 1007.62, 25.6, 78.213, 336.8, , , , 33.6800, 28.2054, 1540.3750, 54.5436, 24.5608, 28.2054, 39.6, 6.6809, 1B
2009/03/19, 00:50:02, 11.429217, -106.585917, , , 336.0, 11.90, 337.8, 27.362, 1007.69, 24.3, 77.623, 337.6, , , , 33.6817, 28.2088, 1540.3843, 54.5495, 24.5616, 28.2088, 34.2, 7.0670, 1B
2009/03/19, 00:51:02, 11.432250, -106.587150, , , 340.0, 12.20, 338.3, 27.377, 1007.84, 24.1, 77.432, 338.0, , , , 33.6892, 28.2102, 1540.3953, 54.5618, 24.5598, 28.2102, 40.9, 7.1803, 1B
2009/03/19, 00:52:02, 11.435483, -106.588417, , , 338.0, 11.90, 338.3, 27.385, 1007.87, 24.6, 77.294, 337.4, , , , 33.6949, 28.2131, 1540.4077, 54.5730, 24.5680, 28.2131, 36.8, 7.2511, 1B
2009/03/19, 00:53:01, 11.438517, -106.589633, , , 337.0, 12.10, 338.5, 27.377, 1007.65, 24.0, 76.995, 338.0, , , , 33.6928, 28.2141, 1540.4074, 54.5708, 24.5512, 28.2141, 38.6, 7.8029, 1B
2009/03/19, 00:54:01, 11.441767, -106.590933, , , 338.0, 11.90, 339.0, 27.408, 1007.58, 22.5, 77.501, 337.5, , , , 33.6951, 28.2152, 1540.4123, 54.5753, 24.5469, 28.2152, 45.0, 8.7615, 1B
2009/03/19, 00:55:02, 11.444900, -106.592217, , , 337.0, 12.30, 337.9, 27.400, 1007.78, 20.7, 76.949, 337.6, , , , 33.6908, 28.2169, 1540.4117, 54.5710, 24.5438, 28.2169, 41.3, 8.2519, 1B
2009/03/19, 00:56:01, 11.447950, -106.593467, , , 336.0, 12.10, 338.0, 27.377, 1007.90, 20.9, 76.482, 337.3, , , , 33.6873, 28.2148, 1540.4043, 54.5642, 24.5361, 28.2148, 41.3, 8.0219, 1B
2009/03/19, 00:57:01, 11.451100, -106.594817, , , 337.0, 12.40, 337.5, 27.416, 1007.66, 21.9, 77.194, 336.7, , , , 33.6969, 28.2133, 1540.4113, 54.5765, 24.5295, 28.2133, 42.2, 7.7449, 1B
2009/03/19, 00:58:01, 11.454250, -106.596183, , , 337.0, 12.20, 338.8, 27.431, 1007.70, 25.1, 77.838, 337.6, , , , 33.6845, 28.2108, 1540.3923, 54.5560, 24.5195, 28.2108, 43.0, 7.6473, 1B
2009/03/19, 00:59:01, 11.457383, -106.597517, , , 339.0, 12.10, 338.2, 27.392, 1007.80, 21.3, 76.505, 337.8, , , , 33.6954, 28.2075, 1540.3959, 54.5680, 24.5196, 28.2075, 35.9, 7.2960, 1B
2009/03/19, 01:00:02, 11.460650, -106.598900, , , 337.0, 12.20, 337.9, 27.416, 1007.91, 16.7, 76.413, 337.2, , , , 33.6980, 28.2070, 1540.3975, 54.5711, 24.5251, 28.2070, 38.6, 7.6258, 1B
2009/03/19, 01:01:02, 11.463783, -106.600250, , , 337.0, 12.40, 337.8, 27.423, 1007.99, 15.3, 76.880, 337.3, , , , 33.6999, 28.2061, 1540.3975, 54.5730, 24.5206, 28.2061, 42.4, 7.8005, 1B
2009/03/19, 01:02:01, 11.466950, -106.601567, , , 337.0, 12.30, 337.8, 27.423, 1007.92, 13.6, 76.880, 337.6, , , , 33.6960, 28.2040, 1540.3879, 54.5648, 24.5149, 28.2040, 45.2, 7.7791, 1B
2009/03/19, 01:03:01, 11.470083, -106.602900, , , 337.0, 12.30, 337.9, 27.408, 1007.78, 12.4, 75.914, 337.3, , , , 33.6973, 28.2041, 1540.3890, 54.5666, 24.5138, 28.2041, 37.5, 7.9278, 1B
2009/03/19, 01:04:01, 11.473217, -106.604233, , , 337.0, 12.10, 337.1, 27.408, 1007.95, 11.9, 75.914, 337.0, , , , 33.7025, 28.2026, 1540.3932, 54.5734, 24.5163, 28.2026, 39.1, 7.8268, 1B
2009/03/19, 01:05:02, 11.476350, -106.605600, , , 338.0, 12.30, 336.8, 27.423, 1007.89, 11.4, 77.531, 336.5, , , , 33.7107, 28.2036, 1540.4034, 54.5860, 24.5217, 28.2036, 40.4, 7.9713, 1B
2009/03/19, 01:06:01, 11.479367, -106.606950, , , 336.0, 12.00, 337.9, 27.423, 1007.87, 11.2, 77.531, 337.0, , , , 33.7095, 28.2045, 1540.4028, 54.5846, 24.5149, 28.2045, 37.8, 7.4055, 1B
2009/03/19, 01:07:02, 11.482517, -106.608283, , , 337.0, 12.20, 337.8, 27.431, 1007.79, 10.1, 77.462, 337.2, , , , 33.7115, 28.2024, 1540.4016, 54.5859, 24.5074, 28.2024, 34.3, 7.5921, 1B
2009/03/19, 01:08:02, 11.485650, -106.609617, , , 338.0, 12.10, 337.8, 27.439, 1007.78, 10.2, 78.075, 336.8, , , , 33.7074, 28.2006, 1540.3933, 54.5781, 24.4950, 28.2006, 36.0, 7.5214, 1B
2009/03/19, 01:09:02, 11.488767, -106.610983, , , 337.0, 12.20, 338.7, 27.408, 1007.87, 9.9, 76.597, 337.9, , , , 33.7184, 28.2008, 1540.4053, 54.5942, 24.4963, 28.2008, 38.6, 8.5389, 1B
2009/03/19, 01:10:01, 11.491900, -106.612300, , , 337.0, 11.90, 338.2, 27.392, 1007.81, 9.5, 76.298, 337.8, , , , 33.7123, 28.1976, 1540.3962, 54.5841, 24.4866, 28.1976, 38.6, 8.2428, 1B
2009/03/19, 01:11:02, 11.495033, -106.613633, , , 337.0, 12.40, 338.4, 27.431, 1007.84, 8.5, 76.918, 337.7, , , , 33.7124, 28.1968, 1540.3902, 54.5814, 24.4846, 28.1968, 38.9, 8.2717, 1B
2009/03/19, 01:12:02, 11.498283, -106.615033, , , 336.0, 12.30, 337.0, 27.431, 1007.87, 7.5, 76.466, 336.7, , , , 33.7216, 28.1962, 1540.3986, 54.5940, 24.4825, 28.1962, 39.2, 7.8963, 1B
2009/03/19, 01:13:01, 11.501317, -106.616350, , , 337.0, 12.00, 337.3, 27.454, 1007.90, 6.9, 77.072, 337.0, , , , 33.7178, 28.1953, 1540.3919, 54.5874, 24.4832, 28.1953, 39.7, 7.5496, 1B
2009/03/19, 01:14:01, 11.504533, -106.617767, , , 337.0, 12.20, 338.0, 27.454, 1007.89, 6.4, 77.072, 336.9, , , , 33.7399, 28.1948, 1540.4130, 54.6182, 24.4797, 28.1948, 33.0, 7.9762, 1B
2009/03/19, 01:15:02, 11.507667, -106.619117, , , 338.0, 12.30, 337.5, 27.423, 1007.88, 5.6, 76.014, 337.1, , , , 33.7365, 28.1938, 1540.4090, 54.6130, 24.4755, 28.1938, 37.4, 7.7912, 1B
2009/03/19, 01:16:02, 11.510683, -106.620433, , , 334.0, 12.30, 337.6, 27.446, 1008.04, 4.8, 77.026, 336.8, , , , 33.7301, 28.1903, 1540.3945, 54.6002, 24.4627, 28.1903, 42.6, 8.0161, 1B
2009/03/19, 01:17:02, 11.513817, -106.621767, , , 336.0, 12.20, 337.2, 27.439, 1007.82, 3.8, 77.616, 336.9, , , , 33.7084, 28.1824, 1540.3543, 54.5609, 24.4125, 28.1824, 39.6, 7.2306, 1B
2009/03/19, 01:18:02, 11.516917, -106.623117, , , 337.0, 11.90, 337.9, 27.423, 1007.84, 3.3, 77.141, 337.3, , , , 33.7158, 28.1712, 1540.3374, 54.5601, 24.3983, 28.1712, 37.4, 7.6889, 1B
2009/03/19, 01:19:02, 11.520167, -106.624500, , , 335.0, 11.80, 337.5, 27.416, 1007.83, 2.9, 76.742, 336.6, , , , 33.7347, 28.1622, 1540.3374, 54.5780, 24.4099, 28.1622, 38.8, 7.7754, 1B
2009/03/19, 01:20:02, 11.523283, -106.625833, , , 337.0, 12.20, 338.1, 27.400, 1007.66, 2.6, 76.734, 337.6, , , , 33.7339, 28.1530, 1540.3163, 54.5674, 24.3927, 28.1530, 33.5, 7.7477, 1B
2009/03/19, 01:21:02, 11.526300, -106.627083, , , 340.0, 12.20, 338.1, 27.408, 1007.78, 2.3, 76.803, 337.5, , , , 33.7215, 28.1433, 1540.2819, 54.5396, 24.3670, 28.1433, 37.9, 7.5117, 1B
2009/03/19, 01:22:02, 11.529550, -106.628467, , , 336.0, 12.20, 338.6, 27.416, 1007.89, 2.1, 77.654, 337.1, , , , 33.7224, 28.1331, 1540.2603, 54.5304, 24.3652, 28.1331, 42.5, 7.5457, 1B
2009/03/19, 01:23:02, 11.532683, -106.629783, , , 339.0, 12.20, 337.7, 27.392, 1007.73, 1.8, 77.102, 336.8, , , , 33.7183, 28.1228, 1540.2332, 54.5140, 24.3538, 28.1228, 37.6, 7.1201, 1B
2009/03/19, 01:24:02, 11.535817, -106.631100, , , 338.0, 12.10, 337.1, 27.408, 1007.99, 1.4, 77.738, 337.2, , , , 33.7360, 28.1176, 1540.2404, 54.5341, 24.3702, 28.1176, 40.4, 7.1866, 1B
2009/03/19, 01:25:01, 11.538933, -106.632417, , , 337.0, 12.00, 338.8, 27.362, 1008.03, 1.4, 76.336, 336.9, , , , 33.7768, 28.1146, 1540.2781, 54.5902, 24.3723, 28.1146, 37.6, 7.5803, 1B
2009/03/19, 01:26:02, 11.542083, -106.633700, , , 337.0, 12.40, 337.9, 27.377, 1007.97, 1.3, 76.336, 337.1, , , , 33.7024, 28.1105, 1540.1893, 54.4785, 24.3518, 28.1105, 40.9, 8.0681, 1B
2009/03/19, 01:27:01, 11.545133, -106.634967, , , 338.0, 12.20, 337.8, 27.392, 1008.04, 1.0, 76.152, 337.1, , , , 33.6824, 28.1048, 1540.1586, 54.4453, 24.3435, 28.1048, 46.2, 7.2816, 1B
2009/03/19, 01:28:01, 11.548283, -106.636283, , , 336.0, 12.30, 337.2, 27.423, 1007.92, 1.0, 77.539, 337.0, , , , 33.6509, 28.0946, 1540.1000, 54.3881, 24.2910, 28.0946, 44.7, 7.9944, 1B
2009/03/19, 01:29:02, 11.551500, -106.637667, , , 335.0, 11.90, 337.3, 27.369, 1007.83, 0.9, 76.137, 337.4, , , , 33.6564, 28.0869, 1540.0887, 54.3882, 24.2920, 28.0869, 40.5, 8.0179, 1B
2009/03/19, 01:30:01, 11.554533, -106.638933, , , 337.0, 12.20, 338.2, 27.385, 1007.90, 0.8, 77.348, 337.5, , , , 33.6554, 28.0787, 1540.0727, 54.3798, 24.2916, 28.0787, 44.1, 7.5597, 1B
2009/03/19, 01:31:01, 11.557800, -106.640300, , , 337.0, 12.40, 338.2, 27.369, 1007.87, 0.5, 76.121, 337.2, , , , 33.6435, 28.0690, 1540.0376, 54.3449, 24.2606, 28.0690, 38.6, 7.5798, 1B
2009/03/19, 01:32:01, 11.560967, -106.641617, , , 337.0, 12.40, 337.4, 27.385, 1007.82, 0.5, 75.845, 336.8, , , , 33.6471, 28.0612, 1540.0254, 54.3501, 24.2663, 28.0612, 42.6, 7.7860, 1B
2009/03/19, 01:33:01, 11.564133, -106.642967, , , 337.0, 12.40, 337.5, 27.377, 1007.97, 0.5, 75.991, 336.7, , , , 33.6562, 28.0516, 1540.0145, 54.3536, 24.2576, 28.0516, 41.9, 7.7077, 1B
2009/03/19, 01:34:01, 11.567200, -106.644283, , , 338.0, 12.10, 338.4, 27.377, 1007.94, 0.5, 75.991, 337.4, , , , 33.6346, 28.0436, 1539.9711, 54.3130, 24.2346, 28.0436, 41.7, 7.6176, 1B
2009/03/19, 01:35:01, 11.570500, -106.645667, , , 336.0, 12.20, 337.4, 27.369, 1007.88, 0.5, 75.225, 336.7, , , , 33.6629, 28.0371, 1539.9879, 54.3476, 24.2479, 28.0371, 39.8, 7.5390, 1B
2009/03/19, 01:36:02, 11.573583, -106.646983, , , 338.0, 12.60, 338.0, 27.400, 1007.89, 0.5, 75.769, 337.5, , , , 33.6606, 28.0351, 1539.9786, 54.3411, 24.2496, 28.0351, 44.1, 7.6697, 1B
2009/03/19, 01:37:02, 11.576883, -106.648383, , , 339.0, 12.50, 338.2, 27.400, 1008.05, 0.5, 76.075, 337.6, , , , 33.6747, 28.0368, 1539.9972, 54.3631, 24.2575, 28.0368, 44.9, 7.6329, 1B
2009/03/19, 01:38:02, 11.580083, -106.649733, , , 337.0, 12.30, 338.1, 27.439, 1008.07, 0.5, 77.033, 337.3, , , , 33.6847, 28.0406, 1540.0162, 54.3814, 24.2762, 28.0406, 44.9, 7.7004, 1B
2009/03/19, 01:39:02, 11.583283, -106.651083, , , 338.0, 12.50, 338.2, 27.431, 1008.08, 0.5, 76.581, 337.1, , , , 33.6869, 28.0458, 1540.0300, 54.3899, 24.2731, 28.0458, 39.4, 7.6236, 1B
2009/03/19, 01:40:01, 11.586383, -106.652383, , , 337.0, 12.30, 337.7, 27.423, 1008.14, 0.5, 76.941, 336.8, , , , 33.6901, 28.0494, 1540.0411, 54.3981, 24.2793, 28.0494, 43.2, 7.6768, 1B
2009/03/19, 01:41:02, 11.589567, -106.653767, , , 337.0, 12.40, 337.5, 27.392, 1007.99, 0.5, 75.370, 337.1, , , , 33.6835, 28.0544, 1540.0454, 54.3938, 24.2898, 28.0544, 39.0, 7.7265, 1B
2009/03/19, 01:42:02, 11.592883, -106.655167, , , 340.0, 12.40, 338.0, 27.400, 1008.03, 0.5, 74.857, 337.6, , , , 33.6925, 28.0604, 1540.0682, 54.4129, 24.2898, 28.0604, 38.4, 7.9527, 1B
2009/03/19, 01:43:02, 11.596067, -106.656533, , , 337.0, 12.60, 337.2, 27.408, 1008.11, 0.5, 75.432, 337.2, , , , 33.6882, 28.0664, 1540.0769, 54.4128, 24.2953, 28.0664, 42.3, 7.7789, 1B
2009/03/19, 01:44:02, 11.599233, -106.657917, , , 336.0, 12.20, 338.1, 27.408, 1008.16, 0.5, 76.282, 337.2, , , , 33.6904, 28.0715, 1540.0905, 54.4212, 24.3006, 28.0715, 44.1, 8.4232, 1B
2009/03/19, 01:45:01, 11.602417, -106.659283, , , 336.0, 12.20, 337.7, 27.408, 1008.07, 0.5, 76.282, 337.3, , , , 33.6961, 28.0772, 1540.1060, 54.4339, 24.3080, 28.0772, 44.5, 7.7849, 1B
2009/03/19, 01:46:02, 11.605600, -106.660650, , , 337.0, 12.30, 337.3, 27.423, 1008.19, 0.5, 76.895, 337.1, , , , 33.7031, 28.0835, 1540.1304, 54.4518, 24.3150, 28.0835, 43.2, 7.6359, 1B
2009/03/19, 01:47:01, 11.608767, -106.662050, , , 337.0, 12.20, 337.5, 27.439, 1008.18, 0.4, 76.957, 336.6, , , , 33.6975, 28.0914, 1540.1420, 54.4519, 24.3213, 28.0914, 37.6, 7.7351, 1B
2009/03/19, 01:48:01, 11.611817, -106.663400, , , 337.0, 12.20, 337.6, 27.416, 1008.16, 0.5, 76.980, 337.3, , , , 33.6921, 28.0951, 1540.1440, 54.4477, 24.3116, 28.0951, 34.8, 7.3626, 1B
2009/03/19, 01:49:02, 11.615067, -106.664833, , , 337.0, 12.60, 338.1, 27.431, 1008.20, 0.4, 76.650, 336.7, , , , 33.6801, 28.0984, 1540.1391, 54.4340, 24.3014, 28.0984, 38.8, 7.6841, 1B
2009/03/19, 01:50:02, 11.618150, -106.666183, , , 336.0, 12.20, 337.9, 27.446, 1008.18, 0.4, 77.930, 337.5, , , , 33.6808, 28.0982, 1540.1394, 54.4349, 24.2947, 28.0982, 37.1, 8.1313, 1B
2009/03/19, 01:51:02, 11.621350, -106.667567, , , 337.0, 12.30, 337.3, 27.408, 1008.20, 0.3, 77.309, 337.4, , , , 33.6875, 28.0988, 1540.1478, 54.4451, 24.2979, 28.0988, 36.5, 7.1380, 1B
2009/03/19, 01:52:01, 11.624567, -106.668950, , , 336.0, 12.70, 338.1, 27.416, 1008.36, 0.3, 77.309, 337.6, , , , 33.6796, 28.0991, 1540.1410, 54.4345, 24.2929, 28.0991, 43.5, 7.2500, 1B
2009/03/19, 01:53:02, 11.627767, -106.670350, , , 336.0, 12.50, 338.1, 27.423, 1008.34, 0.4, 77.830, 336.9, , , , 33.6838, 28.0998, 1540.1461, 54.4408, 24.2999, 28.0998, 45.5, 7.5069, 1B
2009/03/19, 01:54:02, 11.630983, -106.671767, , , 336.0, 12.80, 338.1, 27.400, 1008.40, 0.5, 76.619, 337.5, , , , 33.6876, 28.1011, 1540.1530, 54.4476, 24.2982, 28.1011, 43.3, 7.1440, 1B
2009/03/19, 01:55:01, 11.634183, -106.673200, , , 335.0, 12.40, 338.2, 27.400, 1008.27, 0.5, 77.164, 337.0, , , , 33.6811, 28.0999, 1540.1457, 54.4381, 24.2877, 28.0999, 40.0, 7.5564, 1B
2009/03/19, 01:56:01, 11.637500, -106.674667, , , 337.0, 12.40, 337.2, 27.400, 1008.43, 0.5, 77.079, 336.5, , , , 33.6748, 28.0999, 1540.1368, 54.4280, 24.2807, 28.0999, 36.8, 6.9825, 1B
2009/03/19, 01:57:01, 11.640733, -106.676000, , , 339.0, 12.60, 340.6, 27.392, 1008.38, 0.5, 76.888, 340.7, , , , 33.6794, 28.0982, 1540.1393, 54.4334, 24.2753, 28.0982, 38.8, 7.1026, 1B
2009/03/19, 01:58:01, 11.643967, -106.677333, , , 336.0, 12.40, 340.0, 27.392, 1008.27, 0.5, 76.796, 339.6, , , , 33.6822, 28.0961, 1540.1380, 54.4355, 24.2785, 28.0961, 32.0, 7.6065, 1B
2009/03/19, 01:59:02, 11.647083, -106.678617, , , 337.0, 12.60, 339.9, 27.392, 1008.37, 0.5, 76.137, 339.4, , , , 33.6839, 28.0954, 1540.1365, 54.4364, 24.2706, 28.0954, 37.5, 7.7789, 1B
2009/03/19, 02:00:01, 11.650450, -106.680000, , , 336.0, 12.60, 339.6, 27.408, 1008.36, 0.5, 77.164, 339.2, , , , 33.6787, 28.0958, 1540.1310, 54.4289, 24.2701, 28.0958, 39.7, 7.3390, 1B
2009/03/19, 02:01:02, 11.653667, -106.681367, , , 337.0, 12.30, 339.7, 27.385, 1008.27, 0.5, 76.551, 338.6, , , , 33.6831, 28.0945, 1540.1337, 54.4343, 24.2737, 28.0945, 32.5, 7.3854, 1B
2009/03/19, 02:02:01, 11.656883, -106.682733, , , 337.0, 12.60, 340.3, 27.416, 1008.32, 0.5, 77.508, 339.4, , , , 33.6833, 28.0949, 1540.1348, 54.4350, 24.2686, 28.0949, 34.6, 7.7556, 1B
2009/03/19, 02:03:01, 11.660100, -106.684117, , , 338.0, 12.50, 340.5, 27.377, 1008.42, 0.5, 76.190, 339.9, , , , 33.6750, 28.0940, 1540.1238, 54.4221, 24.2673, 28.0940, 39.6, 7.8107, 1B
2009/03/19, 02:04:02, 11.663317, -106.685417, , , 337.0, 12.50, 341.5, 27.377, 1008.43, 0.5, 75.976, 341.2, , , , 33.6805, 28.0919, 1540.1252, 54.4279, 24.2644, 28.0919, 36.6, 7.5283, 1B